This demonstration page uses our WeatherBlox Daily Observations layout. Learn more.

Left ArrowRight Arrow

39.51506, -84.39828

Hourly Observations for May 8, 2015

Temp ( °F °C ) Dew Point ( °F °C ) Humidity (%) Winds ( mph kmh ) Pressure ( in mb ) Visibility ( mi km ) Precip ( " mm )
12:15 am 00:15 Clear 63 17.4 58 14.3 82 82 Calm 30.03 1017 10 16 0.00 0.00
12:35 am 00:35 Clear 63 17 57 14.1 83 83 Calm 30.03 1017 10 16 0.00 0.00
12:55 am 00:55 Clear 63 17.1 58 14.2 83 83 Calm 30.03 1017 10 16 0.00 0.00
1:15 am 01:15 Clear 63 17.2 58 14.5 84 84 Calm 30.03 1017 10 16 0.00 0.00
1:35 am 01:35 Clear 61 16 56 13.4 85 85 Calm 30.03 1017 10 16 0.00 0.00
1:55 am 01:55 Clear 61 16.1 56 13.6 85 85 Calm 30.03 1017 10 16 0.00 0.00
2:15 am 02:15 Clear 62 16.6 57 14.1 85 85 Calm 30.03 1017 10 16 0.00 0.00
2:35 am 02:35 Clear 61 16 56 13.4 85 85 Calm 30.03 1017 10 16 0.00 0.00
2:55 am 02:55 Clear 60 15.5 56 13.2 86 86 Calm 30.03 1017 10 16 0.00 0.00
3:15 am 03:15 Clear 61 15.9 56 13.6 86 86 Calm 30.03 1017 10 16 0.00 0.00
3:35 am 03:35 Clear 60 15.8 56 13.5 86 86 Calm 30.03 1017 10 16 0.00 0.00
3:55 am 03:55 Clear 60 15.3 56 13.1 87 87 Calm 30.06 1018 7 11 0.00 0.00
4:15 am 04:15 Clear 60 15.3 56 13.3 88 88 Calm 30.06 1018 7 11 0.00 0.00
4:35 am 04:35 Clear 60 15.3 56 13.3 88 88 Calm 30.06 1018 7 11 0.00 0.00
4:55 am 04:55 Clear 60 15.3 56 13.3 88 88 Calm 30.06 1018 7 11 0.00 0.00
5:15 am 05:15 Clear with Mist and Fog 59 15 56 13.2 89 89 Calm 30.06 1018 4 6 0.00 0.00
5:35 am 05:35 Clear with Mist and Fog 58 14.6 55 12.8 89 89 Calm 30.06 1018 5 8 0.00 0.00
5:55 am 05:55 Clear with Mist and Fog 60 15.3 56 13.5 89 89 Calm 30.06 1018 4 6 0.00 0.00
6:15 am 06:15 Clear with Mist and Fog 57 13.9 54 12.1 89 89 Calm 30.06 1018 3 5 0.00 0.00
6:35 am 06:35 Sunny with Mist and Fog 60 15.3 56 13.5 89 89 Calm 30.09 1019 3 4 0.00 0.00
6:55 am 06:55 Sunny with Mist and Fog 57 14.1 54 12.3 89 89 Calm 30.09 1019 4 6 0.00 0.00
7:15 am 07:15 Sunny with Mist and Fog 60 15.3 56 13.5 89 89 Calm 30.09 1019 5 8 0.00 0.00
7:35 am 07:35 Sunny with Mist and Fog 60 15.3 56 13.5 89 89 Calm 30.09 1019 5 8 0.00 0.00
7:55 am 07:55 Sunny with Mist and Fog 61 16.2 58 14.4 89 89 Calm 30.12 1020 4 6 0.00 0.00
8:15 am 08:15 Hazy 64 17.6 59 15.2 86 86 Calm 30.09 1019 5 8 0.00 0.00
8:35 am 08:35 Sunny 67 19.5 62 16.6 83 83 Calm 30.09 1019 7 11 0.00 0.00
8:55 am 08:55 Sunny 69 20.8 62 16.4 76 76 Calm 30.09 1019 7 11 0.00 0.00
9:15 am 09:15 Sunny 73 22.7 62 16.8 69 69 Calm 30.09 1019 7 11 0.00 0.00
9:35 am 09:35 Sunny 74 23.6 60 15.5 61 61 SW 3 6 30.09 1019 10 16 0.00 0.00
9:55 am 09:55 Sunny 77 25.1 59 15 54 54 SSW 5 7 30.09 1019 10 16 0.00 0.00
10:15 am 10:15 Sunny 77 25.1 56 13.6 49 49 SSW 5 7 30.06 1018 10 16 0.00 0.00
10:35 am 10:35 Sunny 80 26.5 58 14.3 47 47 WSW 7 11 30.06 1018 10 16 0.00 0.00
10:55 am 10:55 Sunny 80 26.5 56 13.6 45 45 SW 6 9 30.06 1018 10 16 0.00 0.00
11:15 am 11:15 Sunny 81 27.2 56 13.2 42 42 SW 5 7 30.06 1018 10 16 0.00 0.00
11:35 am 11:35 Sunny 82 28 52 11.1 35 35 SW 8 13 30.06 1018 10 16 0.00 0.00
11:55 am 11:55 Sunny 83 28.1 51 10.8 34 34 WSW 10 17 30.06 1018 10 16 0.00 0.00
12:15 pm 12:15 Sunny 83 28.6 50 10 31 31 SW 12 19 30.03 1017 10 16 0.00 0.00
12:35 pm 12:35 Sunny 83 28.6 49 9.7 31 31 SW 10 17 30.03 1017 10 16 0.00 0.00
12:55 pm 12:55 Sunny 84 29 47 8.3 27 27 WSW 13 20 30.03 1017 10 16 0.00 0.00
1:15 pm 13:15 Sunny 85 29.5 48 9.1 28 28 SW 10 17 30.03 1017 10 16 0.00 0.00
1:35 pm 13:35 Sunny 87 30.7 51 10.4 28 28 S 9 15 30.00 1016 10 16 0.00 0.00
1:55 pm 13:55 Sunny 89 31.6 50 10.2 27 27 SW 9 15 30.00 1016 10 16 0.00 0.00
2:15 pm 14:15 Sunny 90 32.1 52 11.2 28 28 SSW 14 22 30.00 1016 10 16 0.00 0.00
2:35 pm 14:35 Sunny 90 32 52 11.3 28 28 SSW 10 17 30.00 1016 10 16 0.00 0.00
2:55 pm 14:55 Sunny 87 30.6 49 9.5 27 27 WSW 8 13 29.97 1015 10 16 0.00 0.00
3:15 pm 15:15 Partly Cloudy 90 32.1 48 9.1 24 24 SW 16 26 29.97 1015 10 16 0.00 0.00
3:35 pm 15:35 Partly Cloudy 90 32.1 48 8.9 24 24 SW 13 20 29.97 1015 10 16 0.00 0.00
3:55 pm 15:55 Partly Cloudy 90 32.1 50 9.8 25 25 SW 10 17 29.97 1015 10 16 0.00 0.00
4:15 pm 16:15 Partly Cloudy 90 32.1 49 9.2 24 24 SSW 13 20 29.97 1015 10 16 0.00 0.00
4:35 pm 16:35 Sunny 90 32.1 49 9.4 25 25 SSW 12 19 29.94 1014 10 16 0.00 0.00
4:55 pm 16:55 Sunny 88 31.1 49 9.5 26 26 SSW 13 20 29.94 1014 10 16 0.00 0.00
5:15 pm 17:15 Sunny 90 32.1 49 9.7 25 25 SSW 10 17 29.94 1014 10 16 0.00 0.00
5:35 pm 17:35 Sunny 88 31.2 51 10.8 28 28 SW 8 13 29.94 1014 10 16 0.00 0.00
5:55 pm 17:55 Sunny 85 29.5 48 9.1 28 28 SW 9 15 29.94 1014 10 16 0.00 0.00
6:15 pm 18:15 Sunny 85 29.3 49 9.4 29 29 SW 10 17 29.94 1014 10 16 0.00 0.00
6:35 pm 18:35 Sunny 84 28.7 48 9.1 29 29 SW 9 15 29.94 1014 10 16 0.00 0.00
6:55 pm 18:55 Sunny 83 28.6 52 11.2 34 34 SW 6 9 29.94 1014 10 16 0.00 0.00
7:15 pm 19:15 Sunny 83 28.6 51 10.3 32 32 WSW 7 11 29.94 1014 10 16 0.00 0.00
7:35 pm 19:35 Sunny 82 27.8 53 11.8 37 37 WSW 6 9 29.94 1014 10 16 0.00 0.00
7:55 pm 19:55 Sunny 80 26.5 53 11.6 39 39 SW 5 7 29.97 1015 10 16 0.00 0.00
8:15 pm 20:15 Sunny 80 26.5 54 12.1 41 41 SW 7 11 30.00 1016 10 16 0.00 0.00
8:35 pm 20:35 Sunny 77 25.1 53 11.6 43 43 SW 5 7 29.97 1015 10 16 0.00 0.00
8:55 pm 20:55 Clear 72 22.3 58 14.5 61 61 Calm 30.00 1016 10 16 0.00 0.00
9:15 pm 21:15 Clear 71 21.6 59 14.9 66 66 Calm 30.00 1016 10 16 0.00 0.00
9:35 pm 21:35 Clear 69 20.8 59 15.2 70 70 Calm 30.00 1016 10 16 0.00 0.00
9:55 pm 21:55 Clear 69 20.8 60 15.3 71 71 Calm 30.00 1016 10 16 0.00 0.00
10:15 pm 22:15 Clear 69 20.8 60 15.4 71 71 Calm 30.00 1016 10 16 0.00 0.00
10:35 pm 22:35 Clear 69 20.8 59 14.9 69 69 Calm 30.03 1017 10 16 0.00 0.00
10:55 pm 22:55 Clear 69 20.8 59 15.2 70 70 Calm 30.00 1016 10 16 0.00 0.00
11:15 pm 23:15 Clear 67 19.5 58 14.7 74 74 Calm 30.03 1017 10 16 0.00 0.00
11:35 pm 23:35 Clear 67 19.2 58 14.3 73 73 Calm 30.03 1017 10 16 0.00 0.00
11:55 pm 23:55 Clear 64 18 58 14.2 79 79 Calm 30.00 1016 10 16 0.00 0.00

Powered by AerisWeather